Hourly Data Report for June 04, 2018

TORONTO CITY
ONTARIO
Current Station Operator: ECCC - MSC

43°40'00.000" N
79°24'00.000" W
112.50 m
6158355
71508
XTO

Download Data

Hourly Data (June 2018)
Hourly Data Report for June 4, 2018
TIME
LST
Temp Definition
°C
Dew Point Definition
°C
Rel Hum Definition
%
Precip. Amount Definition
mm

Wind Dir Definition
10's deg

Wind Spd Definition
km/h
Visibility Definition
km
Stn Press Definition
kPa
Hmdx Definition


Wind Chill Definition


Weather Definition


00:00 16.3 14.0 86 0.0 LegendMM LegendMM   99.12     LegendNANA
01:00 16.9 15.0 88 0.0 LegendMM LegendMM   99.09     LegendNANA
02:00 17.7 15.0 84 0.0 LegendMM LegendMM   99.09     LegendNANA
03:00 17.1 13.3 78 0.0 LegendMM LegendMM   99.09     LegendNANA
04:00 16.8 12.8 77 0.0 LegendMM LegendMM   99.15     LegendNANA
05:00 16.1 11.7 75 0.0 LegendMM LegendMM   99.20     LegendNANA
06:00 16.2 11.9 76 0.0 LegendMM LegendMM   99.24     LegendNANA
07:00 15.6 9.1 65 0.0 LegendMM LegendMM   99.28     LegendNANA
08:00 16.3 9.2 63 0.0 LegendMM LegendMM   99.28     LegendNANA
09:00 16.9 9.2 61 0.0 LegendMM LegendMM   99.26     LegendNANA
10:00 17.8 9.3 58 0.0 LegendMM LegendMM   99.27     LegendNANA
11:00 19.1 9.5 54 0.0 LegendMM LegendMM   99.27     LegendNANA
12:00 19.8 11.4 58 0.0 LegendMM LegendMM   99.26     LegendNANA
13:00 18.7 10.2 58 0.0 LegendMM LegendMM   99.26     LegendNANA
14:00 18.8 9.2 54 0.0 LegendMM LegendMM   99.25     LegendNANA
15:00 17.5 7.5 52 0.0 LegendMM LegendMM   99.30     LegendNANA
16:00 17.5 5.6 45 0.0 LegendMM LegendMM   99.37     LegendNANA
17:00 18.3 4.9 41 0.0 LegendMM LegendMM   99.36     LegendNANA
18:00 18.2 5.0 42 0.0 LegendMM LegendMM   99.35     LegendNANA
19:00 18.3 5.3 43 0.0 LegendMM LegendMM   99.31     LegendNANA
20:00 18.1 5.3 43 0.0 LegendMM LegendMM   99.31     LegendNANA
21:00 15.8 7.4 57 0.0 LegendMM LegendMM   99.35     LegendNANA
22:00 14.4 7.2 62 0.0 LegendMM LegendMM   99.38     LegendNANA
23:00 12.4 8.4 76 0.5 LegendMM LegendMM   99.26     LegendNANA

Notes on Data Quality.

Legend

  • E = Estimated
  • M = Missing
  • NA = Not Available*
  • [empty] = Indicates an unobserved value
Date modified: